Weather in Yargunkino

Russia / Chuvash Republic     55°46′02″N   46°41′27″E
temp.,
°C
wind,
m/s
gust,
m/s
humid.,
%
clouds,
%
prec.,
mm/h
press.,
hPa
HPBL,
m
8 may, sat
sat800:00+6nw2292100 0.0 101727
03:00+5n2291100 0.0 101718
06:00+7nne23841 0.0 1018139
09:00+11e456539 0.0 1017915
12:00+12ese447088 0.0 1016826
15:00+13se4573100 0.0 1014898
18:00+12sse4675100 0.0 1013435
21:00+9sse3692100 0.0 1012101
9 may, sun
sun900:00+9se4892100 0.0 1010132
03:00+11sse51376100 0.0 1009352
06:00+11s51477100 0.0 1010488
09:00+12sse61388100 0.8 1010538
12:00+17s7967100 0.1 10101021
15:00+12ssw31093100 2.4 1011360
18:00+10nw5896100 5.1 1013444
21:00+9wnw5996100 8.3 1016527
10 may, mon
mon1000:00+6wnw4797100 0.4 1018355
03:00+6nw4794100 0.5 1021518
06:00+6nnw5892100 0.0 1023724
09:00+8n6882100 0.0 1025789
12:00+11n6763100 0.0 10271030
15:00+13n57490 0.0 10271297
18:00+12n47630 0.0 1028264
21:00+7nne47690 0.0 102993
11 may, tue
tue1100:00+6ne347465 0.0 103157
03:00+5ne35764 0.0 103177
06:00+7ene377426 0.0 1032181
09:00+12ene57545 0.0 1033704
12:00+15ene454815 0.0 10321052
15:00+17ene45485 0.0 10311243
18:00+15e34665 0.0 1031110
21:00+10ese22762 0.0 103112
12 may, wed
wed1200:00+9e22746 0.0 103110
03:00+8e227616 0.0 103117
06:00+10ene2576100 0.0 1032151
09:00+15e35585 0.0 1031548
12:00+19ese34535 0.0 10311051
15:00+20e34535 0.0 10291119
18:00+18e226965 0.0 102853
21:00+14ese2277100 0.0 102811